GFSMA_con_lsi_093.txt.gz
Lid_Strength_Index
-0 -1 -1 -1 -1 -1 -1 -1 -1 -1 -1 -1 -1 -1 -1 -1 -1 -1 -1 -2 -2 -2 -1 -1 -2 -1 -1 -1 -1 -1 -1 -1 -2 -2 -2 -2 -2 -1 -1 -1 -2 -2 -2
-0 -0 -0 -0 -1 -1 -1 -1 -1 -1 -0 -1 -1 -1 -1 -1 -1 -1 -1 -1 -2 -2 -2 -1 -1 -1 -1 -1 -1 -1 -1 -1 -1 -1 -2 -2 -2 -2 -1 -1 -2 -2 -2
-1 -1 -0 -0 -1 -1 -1 -1 -1 -1 -0 -0 -0 -1 -1 -1 -1 -1 -1 -1 -1 -1 -2 -2 -2 -1 -1 -1 -1 -1 -1 -1 -1 -1 -1 -1 -2 -2 -2 -1 -1 -1 -1
-1 -0 -0 -0 -1 -1 -1 -0 -0 0 0 0 0 -0 -0 -1 -1 -1 -1 -1 -1 -1 -1 -2 -1 -1 -1 -1 -1 -1 -1 -1 -1 -1 -1 -1 -2 -2 -2 -1 -1 -1 -1
-1 -0 -0 -0 -0 -0 -0 -0 0 0 1 0 0 0 -0 -0 -1 -1 -1 -1 -1 -1 -1 -1 -1 -1 -1 -1 -1 -1 -1 -1 -1 -1 -1 -1 -2 -1 -2 -1 -1 -1 -1
-1 -0 -0 -0 -0 0 0 0 0 -0 0 1 1 1 0 -0 -0 -0 -0 -1 -1 -1 -1 -1 -1 -1 -1 -1 -1 -1 -1 -1 -1 -1 -1 -1 -1 -1 -1 -1 -1 -1 -1
-1 -0 0 -0 -0 0 0 0 0 1 1 0 1 1 1 0 0 0 -0 -0 -1 -1 -1 -1 -1 -1 -1 -1 -1 -1 -1 -1 -1 -1 -1 -1 -2 -1 -1 -1 -1 -1 -1
-1 -0 0 0 -0 1 0 0 0 1 1 0 2 2 4 3 1 0 -0 -0 -0 -0 -1 -1 -1 -1 -1 -1 -1 -1 -1 -1 -1 -1 -1 -1 -2 -2 -1 -1 -1 -1 -1
-0 -0 -0 0 0 0 1 0 0 1 2 1 1 2 5 6 3 1 1 0 0 0 -0 -1 -1 -1 -1 -1 -1 -1 -1 -1 -1 -1 -1 -1 -2 -2 -2 -1 -1 -1 -1
-0 -0 -0 -0 -0 0 1 1 0 1 1 2 1 1 1 2 5 5 2 1 0 0 -0 -0 -1 -1 -1 -1 -1 -1 0 -0 -1 -1 -1 -1 -2 -2 -1 -1 -1 -1 -1
-0 -0 -0 -0 0 0 -0 0 0 1 1 2 2 2 2 2 2 4 6 3 1 1 0 -0 -0 -1 -1 -1 -1 -0 1 1 1 -0 -0 -1 -1 -1 -1 -1 -1 -1 -1
0 -0 -0 -0 -0 -0 0 0 -0 0 1 1 1 2 2 3 3 3 4 4 4 2 1 0 -0 -0 -1 -1 -1 0 2 2 2 2 1 0 -1 -1 -1 -1 -1 -1 -1
1 0 -0 0 0 -0 -0 -0 0 0 1 1 1 2 1 2 1 2 3 4 4 2 2 0 0 -0 -1 -1 -1 0 0 2 3 3 3 2 0 -0 -1 -1 -1 -1 -1
1 -0 -0 -0 -0 -0 -0 -0 0 0 0 1 1 1 1 1 1 1 2 3 5 4 3 2 0 -0 -0 -1 -1 0 -1 1 2 4 4 3 2 1 0 -0 -1 -0 -0
0 -0 -0 -0 -0 -0 -0 -0 1 0 0 0 1 1 1 1 1 1 1 2 3 6 5 2 2 0 -0 -1 -0 -1 -1 1 2 4 5 4 3 2 2 1 1 1 0
-0 -0 -0 0 -0 -0 -0 -0 0 0 0 1 0 1 1 1 1 1 1 1 1 3 5 2 2 0 -0 -0 -1 -1 -1 1 3 4 4 4 4 3 3 3 2 1 1
0 0 0 0 0 0 0 0 0 0 1 1 0 1 1 1 1 1 1 1 2 2 4 3 1 0 1 1 -0 -1 -1 -1 -0 4 4 4 5 4 4 4 3 3 2
0 0 0 0 0 0 0 0 1 0 1 1 1 1 1 1 1 1 1 1 1 2 2 4 2 1 1 1 0 0 0 -0 -1 3 5 5 5 5 5 6 5 5 4
0 0 0 0 0 0 0 -0 0 0 0 0 0 0 0 0 1 1 1 1 1 1 1 3 3 2 1 1 1 0 0 0 -1 3 5 5 6 5 6 5 6 6 7
0 0 0 0 0 0 -0 -0 -0 0 0 -0 -0 -0 -0 0 0 0 1 1 1 1 2 2 3 3 2 1 1 2 2 1 1 -0 2 3 4 5 5 5 4 4 6
0 0 0 0 0 -0 0 -0 -0 0 0 0 -0 -0 -1 -0 1 1 1 0 1 1 2 2 3 3 3 3 3 2 2 2 1 0 0 0 -0 -0 -0 3 2 3 5
1 1 1 1 0 1 3 3 1 0 0 0 1 0 -0 0 1 3 3 3 1 1 2 2 3 4 3 3 2 2 2 3 4 0 1 1 -0 0 -0 -1 3 4 5
1 1 1 1 1 0 5 5 3 -0 0 0 0 0 0 1 1 0 3 4 4 5 5 1 2 3 3 2 2 2 2 2 3 1 1 2 1 1 -0 -1 4 6 6
1 1 1 1 1 1 5 6 5 -0 0 0 0 0 0 0 -0 0 1 0 1 1 0 1 1 1 1 0 1 1 1 1 1 0 0 3 1 1 -0 -1 5 6 7
1 1 1 1 1 1 6 6 4 0 0 1 0 -0 0 0 3 6 1 1 1 1 2 7 7 8 9 10 4 1 2 3 3 3 1 2 2 1 0 0 0 6 7
1 1 1 1 2 1 6 8 5 1 1 1 0 0 4 2 5 7 1 1 2 2 1 1 1 4 8 6 9 0 1 3 3 4 1 2 2 2 3 1 1 0 0

GFSMA_con_lsi_096.txt.gz
Lid_Strength_Index
-1 -1 -1 -1 -1 -2 -1 -1 -1 -1 -1 -1 -1 -1 -1 -1 -1 -1 -1 -2 -2 -2 -1 -1 -2 -1 -1 -1 -1 -1 -1 -1 -1 -1 -2 -2 -1 -1 -1 -1 -2 -2 -2
-1 -1 -1 -1 -1 -1 -2 -1 -1 -1 -1 -1 -1 -1 -1 -1 -1 -1 -1 -2 -2 -2 -2 -2 -2 -2 -1 -1 -1 -1 -1 -1 -1 -1 -1 -2 -1 -1 -1 -1 -1 -2 -1
-1 -1 -1 -0 -1 -2 -2 -2 -1 -1 -0 -1 -1 -1 -1 -1 -1 -1 -1 -2 -2 -1 -2 -2 -2 -2 -1 -1 -1 -1 -1 -1 -1 -1 -1 -1 -1 -2 -1 -1 -1 -1 -1
-1 -1 -0 -0 -1 -1 -1 -1 -1 -0 -0 -0 -0 -0 -1 -1 -1 -1 -1 -1 -1 -1 -1 -1 -2 -2 -2 -1 -1 -1 -1 -1 -1 -1 -1 -1 -1 -1 -2 -1 -1 -1 -1
-1 -0 -0 -1 -1 -0 -0 -0 -0 -1 -0 0 0 -0 -0 -0 -1 -1 -1 -1 -2 -1 -1 -2 -1 -1 -1 -1 -1 -1 -1 -1 -1 -1 -1 -1 -1 -1 -1 -1 -1 -1 -1
-1 -0 -0 -0 -0 -0 -0 -0 -0 -0 -0 0 0 0 0 -0 -0 -0 -1 -1 -1 -1 -2 -2 -1 -1 -1 -1 -1 -1 -1 -1 -1 -1 -1 -1 -1 -1 -1 -1 -1 -1 -1
-1 -0 -0 -0 -0 0 0 0 0 0 0 -0 1 1 1 -0 -0 -0 -1 -1 -1 -1 -1 -1 -1 -1 -1 -1 -1 -1 -1 -1 -1 -1 -1 -1 -1 -1 -1 -1 -1 -1 -1
-1 -0 -0 -0 -0 0 0 0 0 1 1 0 2 2 4 2 1 0 -0 -0 -0 -1 -1 -1 -1 -2 -2 -1 -1 -0 -1 -1 -1 -1 -1 -1 -1 -1 -1 -1 -1 -1 -1
-1 -1 -0 -0 -0 0 1 0 1 1 2 1 1 2 4 5 3 1 0 -0 -0 -0 -0 -1 -1 -1 -2 -2 -1 -1 -1 -1 -1 -1 -1 -1 -1 -1 -1 -1 -1 -1 -1
-0 -1 -1 -0 -0 -0 1 0 0 1 1 2 1 0 1 2 5 5 1 1 -0 0 -0 -0 -1 -1 -2 -1 -2 -1 0 0 -1 -1 -1 -1 -1 -1 -1 -1 -1 -1 -1
-0 -0 -1 -0 -0 0 -0 -0 0 1 1 2 2 2 2 2 1 3 5 3 1 0 -0 -0 -0 -1 -2 -2 -2 -1 1 1 1 -0 -0 -1 -1 -1 -1 -1 -1 -1 -1
0 -0 -0 -0 -0 -0 -0 0 0 0 0 0 1 1 2 3 3 3 4 3 3 1 0 -0 0 -0 -1 -1 -2 -0 1 2 2 2 1 -0 -0 -1 -1 -1 -1 -1 -1
1 0 -0 0 0 -0 -0 0 0 0 0 1 0 1 1 1 1 2 3 4 4 2 1 0 -0 -0 -1 -1 -1 -0 0 2 2 3 2 1 1 -0 -0 -1 -1 -1 -1
1 -0 0 -0 -0 -0 -0 -0 0 0 0 0 0 1 1 1 1 1 2 3 5 4 3 2 0 0 -1 -1 -1 1 -1 2 3 4 4 3 3 2 1 -0 -1 -0 -0
0 -0 -0 -0 -0 -0 -0 -0 0 0 0 0 0 0 1 0 0 0 1 2 4 6 4 3 3 -0 -1 -1 -1 -1 -1 1 2 2 3 4 4 3 2 1 1 0 0
-1 -0 -0 -0 -0 -0 -0 -0 0 0 1 1 0 0 1 0 0 0 1 1 2 3 5 2 2 1 -1 -0 -1 -1 -1 2 3 3 4 4 5 4 3 2 2 1 1
-0 -0 -0 -0 -0 -0 -0 -0 -0 0 1 1 0 0 1 -0 1 1 0 1 2 2 4 2 1 0 -0 0 -0 -1 -1 -0 -0 4 4 4 5 5 4 3 3 3 2
-0 -0 -0 -0 -0 -0 -0 0 0 0 1 1 1 1 1 1 1 0 1 1 1 1 2 4 2 1 1 -0 0 0 -0 -0 -0 2 5 5 5 6 5 4 4 4 4
-0 -0 -0 0 0 0 -0 -0 -0 0 0 0 0 0 0 0 1 1 0 1 1 1 1 2 3 1 1 0 1 1 1 0 -0 2 5 4 5 5 5 6 6 6 6
0 0 -0 -0 -0 -0 -0 -0 -0 -0 -0 -0 -0 -0 -0 -0 0 0 0 0 1 1 1 2 2 2 2 1 1 2 2 1 1 -0 1 2 4 5 6 6 6 5 6
0 -0 1 1 -0 -0 0 -0 -0 -0 -0 -0 -0 -0 -1 -1 1 0 0 -1 -0 1 1 2 2 3 3 2 3 2 2 1 1 0 0 0 -0 -0 0 5 2 3 5
1 1 1 0 0 0 4 3 0 -0 -0 -0 0 -0 -1 0 0 2 2 2 1 1 1 2 2 2 2 2 2 2 2 3 4 0 1 1 -0 0 -0 -1 3 5 6
1 1 1 1 0 0 6 4 4 -0 -0 -0 -0 -0 0 -0 1 -0 2 3 3 3 3 1 2 2 2 1 2 2 2 3 3 1 1 2 0 1 -1 1 6 5 6
1 1 1 1 1 0 7 6 4 -0 -0 -0 -0 -0 -0 -0 -0 -0 -0 0 -0 -0 -0 0 0 0 0 0 0 1 1 2 1 1 0 3 1 1 -0 -1 7 7 7
1 1 1 1 1 1 8 8 4 0 0 0 -0 -0 -0 -0 3 5 0 1 0 0 1 3 4 6 8 9 6 1 3 3 4 3 1 2 1 1 1 0 1 6 7
1 1 1 1 2 1 8 8 5 0 1 1 0 -0 5 1 5 6 0 1 1 1 0 -0 -0 2 5 1 9 3 1 3 3 4 1 2 2 2 3 0 0 -0 -0

GFSMA_con_lsi_102.txt.gz
Lid_Strength_Index
0 -0 0 -0 -0 -0 -0 -0 -0 -0 0 -0 -0 -0 -0 -0 -0 -0 -0 -2 -2 -2 -3 -2 -2 -2 -2 -1 -1 -1 -1 -1 -1 -1 -1 -1 -1 -1 -1 -1 -1 -1 -1
0 0 0 0 0 -0 -0 -0 0 0 0 -0 0 -0 -0 -0 -0 -0 -0 -1 -2 -2 -2 -2 -2 -2 -2 -1 -1 -1 -1 -1 -1 -1 -1 -1 -1 -1 -1 -1 -1 -1 -1
-0 -0 0 0 0 -1 -0 -0 0 -0 0 0 0 0 0 -0 -0 -0 -0 -0 -1 -2 -2 -2 -2 -2 -2 -1 -1 -1 -1 -1 -1 -1 -1 -1 -1 -1 -1 -1 -1 -1 -1
-0 0 0 0 -0 -0 0 0 0 1 1 1 1 1 0 0 0 -0 -0 -0 -0 -0 -1 -1 -1 -2 -2 -1 -1 -1 -1 -1 -1 -1 -1 -1 -1 -1 -1 -1 -1 -1 -1
-0 -0 0 0 -0 0 0 1 1 1 1 1 1 1 1 1 0 0 0 0 -0 -0 -0 -2 -2 -1 -1 -1 -1 -1 -1 -1 -1 -1 -1 -1 -1 -1 -1 -1 -1 -1 -1
-0 0 0 0 0 1 1 1 1 1 1 1 1 1 1 1 0 1 0 0 0 -0 -0 -0 -0 -0 -1 -1 -1 -1 -1 -1 -1 -1 -1 -1 -1 -1 -1 -1 -1 -1 -1
0 0 0 0 0 1 1 1 1 2 2 1 2 2 2 1 1 1 1 0 0 0 -0 0 -1 -0 0 -0 -1 -1 -1 -1 -1 -1 -0 -0 -0 -1 -1 -1 -1 -1 -1
0 0 0 1 1 1 1 1 1 2 2 1 3 3 5 3 2 1 1 1 1 0 0 -0 -0 -0 -0 -0 -0 -1 -1 -1 -1 -1 -0 -0 -0 -1 -1 -1 -1 -1 -1
0 0 0 0 1 1 1 1 1 2 3 2 1 3 6 6 4 2 2 1 1 1 1 0 0 -0 -0 -0 -0 -1 -1 -1 -1 -1 -1 -0 -0 -1 -1 -1 -1 -1 -1
0 0 0 0 1 1 1 1 1 1 2 3 2 1 2 3 5 6 3 2 1 1 1 1 0 0 -0 -0 -1 -1 0 -0 -1 -1 -0 -0 -1 -1 -1 -1 -1 -1 -1
0 1 0 1 1 1 1 1 1 1 1 2 2 2 2 2 3 5 6 4 2 1 1 1 0 0 0 -0 0 -0 1 1 0 0 0 -0 -0 -0 -1 -1 -1 -1 -1
1 0 1 1 1 1 1 1 1 1 1 1 2 2 3 4 4 4 5 4 4 3 1 1 1 0 0 0 -1 -0 1 1 2 2 1 0 0 -0 -0 -1 -1 -1 -1
1 1 1 1 1 1 1 1 1 1 1 2 2 2 2 2 2 3 3 4 4 3 2 1 1 0 0 0 -0 0 -0 1 2 3 3 1 1 0 -0 -0 -1 -0 -1
1 1 1 1 1 1 1 1 1 1 1 1 2 2 2 2 1 2 3 4 5 4 3 3 1 1 0 0 -0 -0 -0 2 3 3 3 3 2 2 1 1 1 0 0
1 1 1 1 1 2 0 1 1 1 1 1 1 1 2 1 1 1 2 2 4 6 5 3 3 1 0 0 -0 -0 -0 1 2 3 4 4 3 3 3 2 2 1 1
1 1 1 1 1 1 1 1 1 1 2 1 1 1 2 1 1 1 2 2 2 4 5 3 2 1 0 0 0 -0 0 1 2 3 4 4 4 4 4 3 3 2 2
1 1 1 1 1 1 1 1 1 2 2 2 1 2 2 1 2 2 1 2 2 2 4 3 2 1 1 1 1 0 0 0 0 3 3 4 4 4 5 4 4 4 3
3 4 3 1 1 1 1 1 2 2 2 2 2 2 2 2 2 2 2 2 2 2 3 4 3 2 2 1 1 1 1 0 0 1 3 3 4 5 5 5 4 5 4
2 3 4 4 3 1 2 1 1 2 1 1 1 2 2 2 2 2 2 2 2 2 2 3 3 2 2 1 2 1 1 1 0 1 2 2 3 4 5 6 6 5 6
1 2 3 1 3 1 1 1 1 2 2 1 1 1 1 2 2 2 2 2 2 2 2 3 3 3 2 2 2 3 3 1 2 0 1 1 3 4 5 5 6 5 6
1 1 1 1 2 2 1 1 1 2 2 2 1 1 1 2 3 2 2 2 2 3 3 3 4 3 3 3 4 3 3 2 2 1 1 1 2 2 3 5 4 4 6
1 1 2 2 2 2 5 6 3 2 1 2 2 1 4 5 5 6 5 5 2 2 3 3 4 4 4 3 2 3 3 4 5 1 2 2 1 1 1 3 5 5 6
2 2 2 2 2 1 5 6 7 1 2 2 2 2 2 1 1 1 3 3 3 3 2 2 3 3 3 2 2 3 3 3 4 2 2 3 1 2 1 0 6 6 7
2 2 2 2 2 1 6 6 7 3 1 1 1 1 1 1 1 1 1 1 1 1 2 2 1 1 1 1 1 2 2 2 2 1 1 4 2 2 1 3 6 7 6
2 2 2 2 2 2 6 6 4 1 3 2 1 1 1 1 3 3 1 2 2 2 2 3 3 5 6 6 5 3 3 3 4 3 1 3 3 3 2 3 4 6 7
2 2 2 2 2 2 7 7 4 2 2 2 1 1 4 2 8 6 2 2 3 2 2 2 1 2 2 1 4 4 2 4 4 4 2 3 3 3 4 2 3 5 5

GFSMA_con_lsi_105.txt.gz
Lid_Strength_Index
1 1 1 0 0 -0 0 0 0 0 0 0 1 1 0 1 1 1 0 -2 -2 -2 -2 -2 -2 -2 -2 -2 -1 -1 -1 -1 -1 -1 -1 -1 -2 -2 -2 -1 -1 -1 -1
0 0 1 1 0 0 0 1 0 0 1 0 1 1 1 0 0 0 0 -0 -1 -1 -2 -2 -2 -2 -2 -1 -1 -1 -1 -1 -1 -1 -1 -1 -1 -2 -2 -1 -1 -1 -1
0 0 1 0 0 1 1 1 0 0 1 1 1 0 0 1 0 0 0 0 -0 -1 -2 -2 -2 -2 -2 -1 -1 -1 -1 -1 -1 -1 -1 -1 -1 -1 -1 -1 -1 -1 -1
0 1 1 1 1 0 0 0 1 1 1 1 1 1 1 1 1 0 0 0 1 0 -1 -2 -1 -1 -1 -1 -1 -1 -1 -1 -1 -1 -1 -1 -1 -1 -1 -1 -1 -1 -1
-0 0 1 1 0 1 1 1 1 1 2 2 1 1 1 1 0 0 0 1 0 0 0 -1 -1 -1 -1 -1 -1 -1 -1 -1 -1 -1 -1 -1 -1 -1 -1 -1 -1 -1 -1
0 0 0 1 1 1 1 1 2 2 2 1 1 1 1 1 1 1 1 0 0 0 0 0 -0 -0 -1 -1 -1 -1 -1 -1 -1 -1 -1 -1 -1 -1 -1 -1 -1 -1 -1
1 1 0 1 1 1 1 1 2 2 2 1 3 3 2 1 1 1 0 1 1 1 0 0 0 0 -0 -1 -0 -1 -1 -1 -1 -1 -0 -0 -0 -1 -1 -1 -1 -1 -1
1 1 1 1 1 1 1 1 1 2 2 2 3 4 6 4 2 1 2 2 2 0 0 0 0 0 0 1 0 -1 -1 -1 -1 -1 -0 0 -0 -1 -1 -1 -1 -1 -1
1 0 1 1 1 1 1 1 1 2 3 2 2 3 6 7 5 3 3 2 1 2 1 1 0 0 1 0 -0 -0 -0 -0 -1 -1 -0 -0 -0 -1 -1 -1 -1 -1 -1
0 0 0 1 1 1 1 1 1 1 2 3 2 2 2 3 6 7 3 2 2 2 2 1 1 0 1 1 -1 -1 0 0 -1 -1 -0 -0 -1 -1 -1 -1 -0 -0 -1
0 0 0 1 2 1 1 1 1 1 1 2 2 2 2 3 4 5 7 4 3 2 2 1 1 1 1 0 1 1 2 1 1 0 0 0 -0 -1 -0 -0 -0 -1 -1
2 1 2 4 1 0 1 1 1 1 1 2 2 2 3 4 4 5 5 5 4 3 3 2 1 0 0 1 -1 0 1 1 1 1 1 1 0 -0 -0 -0 -1 -1 -1
2 2 1 1 1 0 1 1 1 1 1 2 2 2 2 2 3 4 4 5 5 4 4 3 1 0 0 1 0 0 0 2 2 2 2 1 1 0 -0 -0 -0 -0 -1
1 1 2 1 2 3 2 1 2 2 1 1 2 2 2 2 1 3 3 4 6 5 4 3 2 2 2 2 0 0 1 2 2 2 2 3 3 2 1 0 0 0 0
1 1 1 2 1 1 2 1 2 2 1 1 1 1 2 2 2 2 3 4 4 7 6 4 4 3 2 2 1 1 0 1 2 3 4 4 3 2 2 3 2 1 1
2 3 4 4 3 3 3 2 1 1 1 1 1 2 2 2 1 1 2 3 3 4 6 4 4 3 2 1 -0 0 0 1 2 3 3 2 3 3 4 4 4 3 2
1 2 3 4 5 4 3 5 5 4 2 2 3 3 3 2 2 1 1 2 3 4 5 4 3 3 2 1 1 1 0 0 1 3 3 4 4 4 4 4 4 4 3
2 2 2 3 3 2 3 3 2 3 2 3 3 4 3 2 2 3 1 2 3 4 4 5 4 3 3 2 2 1 1 0 0 1 3 3 5 5 4 4 4 5 4
2 2 2 1 1 1 2 2 3 2 3 3 3 3 2 2 2 2 2 2 3 3 4 4 5 4 2 2 2 1 2 1 0 1 3 3 3 3 4 5 6 5 6
2 2 2 1 1 1 1 1 1 3 2 1 1 1 1 2 2 2 2 3 3 4 4 4 5 5 3 2 1 3 3 3 2 0 1 2 2 2 4 5 6 5 6
1 2 2 2 1 1 1 1 1 2 3 2 2 1 1 1 1 2 2 3 4 4 5 5 6 6 4 4 4 3 3 3 3 2 2 1 1 1 2 4 4 4 5
2 2 2 2 2 1 3 3 2 3 2 2 2 2 1 3 4 6 6 6 5 6 7 7 8 7 5 3 4 4 4 4 5 2 3 3 1 1 1 2 5 6 7
4 2 3 2 2 2 4 4 5 4 3 2 4 5 4 4 6 7 7 7 6 3 3 3 4 4 4 3 3 4 5 5 4 3 3 3 2 3 0 0 6 7 8
4 4 3 2 2 2 5 4 6 5 2 2 3 4 4 6 5 5 6 4 3 4 4 3 4 3 2 2 2 3 3 3 2 2 1 4 3 3 1 2 5 7 7
5 4 3 2 2 2 5 6 6 3 3 2 2 2 2 3 4 4 3 3 3 3 3 4 5 5 5 6 6 5 5 5 4 4 2 3 3 3 2 2 3 7 7
4 3 4 4 3 2 6 7 7 3 4 4 3 2 3 2 6 6 2 3 4 3 3 3 3 4 4 3 5 4 4 4 4 5 4 3 4 4 4 2 4 6 6

GFSMA_con_lsi_108.txt.gz
Lid_Strength_Index
1 1 1 1 0 0 0 0 0 0 0 0 0 0 1 1 1 1 0 -1 -1 -2 -1 -2 -2 -2 -2 -1 -1 -1 -1 -1 -1 -1 -1 -1 -1 -1 -1 -1 -1 -1 -1
0 1 1 2 1 0 0 0 0 0 1 1 1 1 1 0 0 0 1 -0 -1 -1 -1 -1 -2 -2 -2 -1 -1 -1 -1 -1 -1 -1 -1 -1 -1 -1 -1 -1 -1 -1 -1
0 1 2 1 2 2 1 0 2 1 0 0 1 0 1 1 0 1 1 0 -0 -1 -1 -1 -1 -1 -1 -1 -1 -1 -1 -1 -1 -1 -1 -1 -1 -1 -1 -1 -1 -1 -1
0 1 1 1 1 1 1 1 3 3 1 1 1 1 1 0 1 1 1 0 0 -0 -1 -1 -1 -1 -1 -1 -1 -1 -1 -1 -1 -1 -1 -1 -1 -1 -1 -1 -1 -1 -1
1 0 0 0 1 2 2 2 3 3 2 1 1 2 2 1 1 1 1 0 0 0 0 -1 -1 -1 -1 -1 -1 -1 -1 -1 -1 -1 -1 -1 -1 -1 -1 -1 -1 -1 -1
1 1 0 0 2 2 2 2 2 2 2 2 1 2 2 1 1 1 1 0 0 0 0 0 -0 -0 -1 -1 -1 -1 -1 -1 -1 -1 -1 -0 -1 -1 -1 -1 -1 -1 -1
2 2 2 1 2 2 2 1 2 3 3 3 3 3 2 1 1 1 1 2 1 1 1 0 0 0 -0 -1 -0 -1 -1 -1 -1 -1 -0 -0 -1 -1 -1 -1 -1 -1 -1
1 2 2 2 2 2 2 2 2 2 2 2 3 4 5 4 2 1 1 1 1 1 1 1 1 0 0 -0 -0 -1 -1 -1 -1 -1 -0 -0 -0 -1 -1 -1 -1 -1 -1
1 0 1 1 2 1 1 2 2 2 3 2 2 3 6 6 4 2 2 2 2 2 2 1 1 0 0 0 -0 0 -0 -0 -1 -1 -0 -0 -0 -1 -1 -1 -1 -1 -1
1 -0 0 0 1 1 1 1 1 2 2 3 2 1 2 3 6 6 3 2 2 2 2 1 1 0 0 1 1 -0 0 0 -1 -1 -1 -1 -0 -1 -1 -1 -0 -0 -1
1 1 0 0 1 2 3 2 1 2 1 2 3 3 2 2 3 5 6 4 4 2 2 2 2 1 1 1 1 1 2 2 1 1 0 -0 -1 -1 -1 -0 -1 -1 -1
3 2 0 2 1 3 3 2 1 2 1 2 2 2 2 4 4 4 5 5 4 4 2 2 2 2 1 1 1 1 2 2 2 1 1 -0 -1 -1 -1 -1 -1 -1 -1
3 2 2 1 2 2 3 4 3 2 1 2 2 2 2 2 2 2 4 5 5 4 4 3 2 2 1 1 1 1 0 2 3 3 3 2 0 -0 -0 -0 -1 -1 -1
2 1 1 1 1 0 1 2 3 1 1 3 2 3 3 3 1 2 3 4 5 5 5 4 4 3 2 1 0 1 1 3 3 3 3 2 2 1 1 1 0 -0 -0
1 2 2 3 1 0 1 1 1 2 2 3 3 2 2 2 1 1 2 3 4 6 5 4 3 2 1 1 2 2 2 1 1 2 3 3 4 3 2 2 2 2 1
2 3 3 3 3 2 1 1 2 3 3 3 3 2 2 2 1 1 2 2 2 4 6 3 3 3 3 2 2 2 1 1 2 2 2 3 4 3 3 3 3 3 2
3 3 3 3 3 3 3 2 2 2 3 3 2 2 2 2 2 3 3 2 2 3 5 3 4 3 3 3 2 1 0 1 1 2 2 3 4 4 4 4 4 3 3
2 2 2 2 2 2 2 3 2 1 2 3 2 2 2 2 4 4 4 2 2 2 3 4 4 4 4 3 2 2 1 0 1 1 2 3 4 5 5 5 4 5 4
3 2 1 1 2 1 1 2 2 1 2 2 2 2 2 2 3 3 3 3 3 2 2 3 3 4 4 4 5 4 2 1 1 1 2 4 4 4 4 5 6 7 7
3 2 1 1 1 1 1 1 1 2 2 1 1 1 1 2 2 2 3 3 3 2 2 3 5 6 6 5 4 4 3 3 2 1 1 2 2 3 4 4 5 5 7
4 3 2 2 2 1 1 1 2 2 2 2 1 1 1 1 1 2 2 2 2 3 3 4 5 5 5 5 4 4 4 3 3 2 2 3 2 2 2 4 4 4 6
4 4 3 2 2 1 3 3 3 2 2 2 2 2 1 1 2 3 4 4 2 3 5 6 7 7 8 7 5 5 4 5 5 3 3 3 1 2 1 1 4 6 7
6 5 4 3 3 2 4 4 4 2 2 2 2 2 3 1 2 1 5 5 6 7 5 7 8 8 7 3 3 4 4 5 5 3 3 3 2 3 2 1 5 7 8
8 7 6 4 3 3 4 5 5 3 2 2 2 3 2 2 2 2 3 5 6 6 6 4 4 3 3 2 2 3 4 4 4 3 2 4 3 3 2 2 6 8 9
8 9 7 6 5 4 4 4 5 2 2 2 2 2 2 4 9 8 6 6 6 4 4 5 5 5 5 5 4 5 6 6 6 5 3 4 4 4 3 2 3 8 9
7 6 7 5 5 4 5 5 5 2 3 3 2 2 6 5 9 8 4 6 4 3 3 4 5 5 5 5 6 5 5 5 6 5 4 4 5 5 5 1 4 5 8

GFSMA_con_lsi_111.txt.gz
Lid_Strength_Index
1 0 1 1 1 0 -0 0 0 0 0 0 0 0 1 1 1 1 1 -1 -2 -2 -2 -2 -2 -2 -2 -1 -1 -1 -1 -1 -1 -1 -1 -1 -1 -1 -1 -1 -1 -1 -1
1 1 1 1 1 1 1 0 0 0 1 1 1 1 1 1 0 0 -0 0 -1 -1 -1 -2 -1 -1 -2 -1 -1 -1 -1 -1 -1 -1 -1 -1 -1 -1 -1 -1 -1 -1 -1
1 1 1 1 1 2 2 2 2 1 2 1 1 1 1 0 0 -0 0 1 -0 -1 -1 -1 -1 -1 -1 -1 -1 -1 -1 -1 -1 -1 -1 -1 -1 -1 -1 -1 -1 -1 -1
-0 1 1 1 1 2 3 3 3 3 2 2 3 1 1 1 0 0 1 1 1 -0 -1 -1 -1 -1 -1 -1 -1 -1 -1 -1 -0 -1 -1 -1 -1 -1 -1 -1 -1 -1 -1
0 0 1 1 1 2 2 2 3 3 3 3 4 2 1 1 1 0 0 1 1 0 -0 -1 -1 -1 -1 -1 -1 -1 -1 -1 -0 -1 -1 -1 -1 -1 -1 -1 -1 -1 -1
2 1 1 2 2 2 2 2 3 4 4 3 3 3 2 1 1 1 1 0 1 1 1 1 0 -0 -1 -1 -1 -1 -1 -1 -1 -1 -0 -0 -1 -1 -1 -1 -1 -1 -1
2 3 3 3 3 3 3 2 2 4 4 4 4 4 2 2 2 1 0 0 0 0 1 1 1 1 0 -1 -1 -1 -1 -1 -1 -1 -0 -0 -0 -1 -1 -1 -1 -1 -1
0 0 2 2 2 2 2 2 3 3 3 3 4 4 5 3 3 1 1 1 1 0 1 1 1 1 1 1 -0 -1 -1 -1 -1 -1 -0 -0 -0 -1 -1 -1 -1 -1 -1
0 0 1 0 1 2 2 1 2 3 3 2 2 3 6 7 4 3 2 1 1 1 1 2 1 1 1 1 -0 -1 -1 -1 -1 -1 -1 -0 -0 -1 -1 -1 -0 -1 -1
0 0 0 1 1 1 1 1 1 2 2 3 2 1 2 2 5 6 3 2 1 1 1 1 1 1 0 0 -0 -0 0 0 -1 -1 -1 -1 -1 -1 -1 -1 -1 -1 -1
2 1 1 1 2 1 1 1 1 2 2 3 4 5 4 2 2 4 6 4 2 1 1 2 2 1 0 1 1 1 2 1 1 0 -0 -0 -1 -1 -1 -1 -1 -1 -2
3 2 1 1 2 2 2 1 2 2 2 2 4 4 3 4 4 4 5 4 4 2 1 1 2 1 1 1 1 1 2 3 3 2 1 0 -1 -1 -1 -1 -1 -1 -1
3 2 2 2 1 1 1 2 3 4 3 3 2 2 2 3 3 3 4 4 5 3 3 1 1 1 2 2 1 1 1 3 3 3 3 2 1 0 -1 -1 -1 -1 -1
2 2 2 3 3 2 2 1 1 2 3 3 2 2 2 2 1 3 4 4 5 4 3 3 1 1 1 2 1 1 1 2 3 4 4 3 3 1 1 -0 0 0 -0
2 3 3 4 4 3 3 3 1 1 1 1 1 1 2 2 3 2 3 3 4 6 6 3 3 1 1 2 2 1 1 2 3 4 3 3 2 2 3 3 2 1 1
3 3 3 4 4 4 4 4 4 3 2 1 1 3 3 2 3 2 2 2 2 4 6 3 2 2 2 1 2 2 2 3 3 2 2 3 4 3 4 3 3 3 2
3 3 4 4 4 5 5 5 5 4 4 3 3 2 2 1 3 2 1 2 2 3 5 3 2 2 1 2 2 2 2 3 2 2 3 3 3 4 5 5 4 4 4
3 3 3 4 4 4 4 5 5 4 4 4 3 2 2 1 2 2 2 3 3 2 3 4 3 3 2 2 3 3 3 1 1 1 2 3 3 3 5 5 5 5 4
4 4 4 3 3 3 4 4 3 3 3 3 3 2 2 2 2 3 3 3 3 3 3 3 3 2 2 3 3 5 4 4 2 1 3 3 3 4 4 5 5 5 6
3 3 2 2 2 2 2 2 2 3 3 2 2 2 1 2 2 2 2 3 3 3 3 3 3 3 3 3 5 6 5 3 3 1 1 2 2 3 4 5 4 4 7
4 3 3 3 3 2 2 3 2 2 3 3 2 2 1 1 1 1 2 2 2 3 3 3 4 3 5 5 5 5 4 5 4 3 3 2 3 2 3 4 3 4 6
5 5 4 3 3 2 4 4 3 3 2 3 3 2 2 1 1 2 2 2 2 3 3 3 4 4 4 5 5 6 5 6 7 3 4 3 2 3 2 2 3 5 6
6 6 7 7 6 6 7 6 4 4 3 3 2 2 2 1 1 1 2 2 2 4 3 2 3 4 6 6 6 6 6 5 5 4 4 5 4 4 2 0 5 7 8
8 8 7 7 7 6 7 8 7 4 5 3 2 2 2 2 1 2 2 2 2 1 2 2 2 4 5 5 5 4 4 5 6 5 3 4 4 4 3 1 6 8 9
9 8 7 6 6 6 8 8 8 6 5 3 2 1 2 2 4 6 3 2 2 4 5 6 6 7 8 7 5 5 6 6 7 6 4 4 5 5 3 3 4 7 9
9 7 6 6 6 6 7 8 7 7 4 2 2 1 4 5 7 7 3 3 5 5 5 6 7 7 6 5 5 4 5 6 7 6 4 4 5 5 5 3 3 6 8

GFSMA_con_lsi_114.txt.gz
Lid_Strength_Index
0 -0 -0 -0 0 -0 -0 -0 -0 -0 -0 -0 -1 -0 -0 -0 -0 -0 -0 -1 -2 -2 -2 -2 -1 -1 -1 -1 -1 -1 -1 -1 -1 -1 -1 -1 -1 -1 -1 -1 -1 -1 -1
0 0 0 0 1 1 0 1 1 1 0 -0 -0 -0 -0 -0 -0 -0 -1 -1 -2 -2 -1 -2 -2 -1 -1 -1 -1 -1 -1 -1 -1 -1 -1 -1 -1 -1 -1 -1 -1 -1 -1
1 0 1 1 1 1 1 1 2 2 2 2 1 -0 -0 0 0 -0 -1 -1 -1 -2 -1 -2 -2 -1 -1 -1 -2 -1 -1 -1 -1 -1 -1 -1 -1 -1 -1 -1 -1 -1 -1
-0 0 1 1 1 1 1 2 2 2 3 3 3 2 1 1 1 -1 -1 -1 -1 -1 -1 -1 -1 -1 -1 -1 -1 -1 -1 -1 -1 -1 -1 -1 -1 -1 -1 -1 -1 -1 -1
-0 -0 0 0 1 1 2 2 2 2 2 3 3 2 2 2 2 -0 -0 -1 -1 -1 -1 -1 -2 -1 -1 -1 -1 -1 -1 -1 -1 -1 -1 -1 -1 -1 -1 -1 -1 -1 -1
1 0 0 0 1 1 2 2 2 2 2 2 3 3 3 2 2 1 0 -0 -1 -1 -1 -1 -1 -1 -1 -1 -1 -1 -1 -1 -1 -1 -1 -0 -1 -1 -1 -1 -1 -1 -1
1 2 2 1 1 1 1 2 2 2 3 3 2 2 3 3 2 1 -0 -0 -0 -0 -1 -1 -1 -1 -1 -1 -1 -1 -1 -1 -1 -1 -0 -0 -0 -1 -1 -1 -1 -1 -1
-0 -0 0 0 0 1 1 2 2 2 2 3 3 3 5 3 1 1 0 0 0 -0 -0 -1 -1 -1 -1 -1 -1 -1 -1 -1 -1 -1 -0 -0 -0 -1 -1 -1 -1 -1 -1
-0 -0 -0 -0 0 0 1 1 1 2 3 2 2 3 6 7 4 2 1 1 1 0 0 -0 -1 -1 -0 -1 -0 -1 -1 -1 -1 -1 -0 -0 -0 -1 -1 -1 -1 -0 -1
-0 -0 -0 -0 -0 0 1 1 1 1 2 3 2 2 2 2 5 6 2 2 1 1 1 1 0 -0 -1 -1 -1 -1 0 -0 -1 -1 -1 -1 -1 -1 -1 -1 -1 -0 0
1 -0 -0 0 0 1 0 0 1 1 1 2 2 3 3 3 3 4 6 4 2 1 1 1 0 -0 -0 -1 -1 -0 1 1 1 0 0 -0 -1 -1 -1 -0 -1 -1 -2
1 -0 -0 -0 -1 -0 0 0 0 1 1 1 1 3 3 4 4 4 5 4 4 2 1 0 0 0 -0 -1 -1 0 1 2 3 2 1 1 -0 -1 -1 -1 -1 -1 -1
1 1 1 1 1 1 0 0 0 1 1 1 1 2 1 2 2 2 3 4 4 3 2 1 0 0 -0 -1 -1 0 1 3 4 4 3 2 1 0 -1 -1 -1 -1 -1
1 1 1 2 2 2 2 1 0 1 0 1 2 1 1 1 1 2 3 4 5 4 3 3 1 0 -0 -0 -0 0 -0 3 4 4 4 4 3 2 2 1 0 -0 -0
1 1 2 3 2 2 3 2 2 2 1 1 1 1 1 1 1 1 2 2 4 6 5 3 3 0 -0 -1 -0 -1 -1 2 3 4 4 4 4 3 1 1 2 2 1
1 1 2 2 3 3 3 3 4 3 3 2 1 1 1 1 1 1 1 2 2 4 6 2 2 1 0 -0 -1 -1 -0 2 3 3 4 4 3 3 3 3 3 3 2
1 1 1 2 2 3 3 3 4 4 3 3 2 2 2 1 1 1 1 1 2 2 4 3 1 1 1 1 0 -0 -0 0 0 4 3 3 4 4 4 3 4 4 3
2 1 1 2 2 2 3 4 4 3 3 4 3 3 2 1 1 1 1 2 2 2 3 4 2 2 1 1 0 0 0 -0 0 2 3 3 4 4 4 4 5 5 5
2 2 2 2 2 2 2 3 3 3 3 3 3 2 2 1 2 2 2 2 2 2 2 3 3 2 1 1 1 0 1 1 0 1 3 4 4 4 4 5 5 6 6
3 3 3 2 2 2 2 3 3 3 3 3 3 2 2 1 2 1 2 2 2 2 2 3 3 3 2 1 1 2 2 1 2 1 1 2 3 3 4 4 5 4 5
4 4 4 4 3 2 2 1 1 1 2 2 2 1 1 1 1 1 1 2 2 2 3 3 3 3 3 3 3 2 3 2 2 2 1 0 -0 -0 -0 3 2 3 4
5 5 5 4 3 3 5 4 3 2 2 2 2 2 2 2 2 2 2 2 1 2 3 3 4 4 3 3 2 3 3 4 5 3 1 2 -0 0 -0 -1 3 5 5
6 6 5 5 5 4 6 7 6 4 4 3 4 4 4 3 3 1 2 3 3 2 2 2 3 3 3 2 2 3 4 4 4 3 1 2 1 1 0 -0 4 5 6
7 6 6 6 7 6 8 8 8 5 4 4 4 4 4 3 3 2 1 2 1 1 1 1 1 1 1 2 1 2 4 4 5 4 2 3 1 1 -0 -0 6 6 8
9 9 9 9 8 7 8 9 8 6 5 4 4 3 3 3 5 6 2 2 2 2 2 4 3 5 7 7 5 4 5 6 7 5 2 2 2 2 1 1 3 9 9
11 10 10 9 9 7 8 9 7 6 5 5 4 3 4 3 6 7 5 3 4 3 2 2 2 6 7 6 7 3 5 6 5 4 2 2 2 2 4 2 3 4 7

GFSMA_con_lsi_117.txt.gz
Lid_Strength_Index
-1 -1 -1 -1 -1 -1 -1 -1 -1 -1 -1 -1 -1 -1 -1 -1 -1 -1 -1 -3 -3 -3 -2 -2 -2 -1 -1 -1 -1 -1 -1 -1 -1 -1 -1 -1 -1 -1 -1 -1 -1 -1 -1
-1 -1 -0 -0 -1 -1 -1 -1 -1 -0 -0 -1 -1 -1 -1 -1 -2 -2 -1 -1 -3 -2 -2 -2 -1 -1 -1 -1 -1 -1 -1 -1 -1 -1 -1 -1 -1 -1 -1 -1 -1 -1 -1
-1 -1 -0 -0 -1 -1 -1 -1 -1 -1 -0 -0 -0 -1 -1 -1 -1 -1 -1 -1 -2 -3 -2 -2 -2 -2 -1 -1 -1 -1 -1 -1 -1 -1 -1 -1 -1 -1 -1 -1 -1 -1 -1
-1 -1 -0 -0 -1 -1 -1 -0 -0 0 0 0 0 -0 -0 -1 -1 -1 -1 -1 -2 -1 -2 -2 -2 -1 -1 -1 -1 -1 -1 -1 -1 -1 -1 -1 -1 -1 -1 -1 -1 -1 -1
-1 -1 -0 -0 -1 -0 -0 -0 0 0 1 1 0 0 -0 -0 -0 -1 -1 -1 -1 -1 -1 -2 -1 -1 -1 -1 -1 -1 -1 -1 -1 -1 -1 -1 -1 -1 -1 -1 -1 -1 -1
-1 -1 -0 -0 -1 -0 0 -0 0 0 0 1 1 1 0 -0 -0 -0 -0 -1 -1 -1 -1 -1 -1 -1 -1 -1 -1 -1 -1 -1 -1 -1 -1 -0 -1 -1 -1 -1 -1 -1 -1
-1 -1 -0 -0 -0 0 0 -0 0 1 1 0 1 1 1 0 0 0 0 -0 -0 -1 -1 -1 -1 -1 -1 -1 -1 -1 -1 -1 -1 -1 -0 -0 -0 -1 -1 -1 -1 -1 -1
-1 -1 -1 -0 -0 0 0 0 1 1 1 1 2 3 4 2 1 0 0 0 -0 -0 -0 -1 -1 -1 -1 -1 -1 -1 -1 -1 -1 -1 -0 -0 -0 -1 -1 -1 -1 -1 -1
-1 -1 -1 -1 -1 -0 0 0 0 1 2 1 1 3 5 5 3 1 1 1 0 0 -0 -1 -1 -1 -1 -1 -1 -1 -1 -1 -1 -1 -0 0 -0 -1 -1 -1 -1 -1 -1
-1 -1 -1 -1 -1 -1 -0 0 0 1 1 3 1 1 1 2 5 5 2 1 0 0 -0 -0 -1 -1 -1 -1 -1 -1 0 -0 -1 -1 -0 -0 -1 -1 -1 -1 -1 -0 -1
-1 -1 -1 -1 -1 -0 -0 -0 -0 0 0 2 2 2 2 2 2 4 5 3 1 1 0 -0 -0 -1 -1 -1 -1 -1 1 0 0 -0 -0 -0 -0 -1 -1 -1 -1 -1 -1
-0 -1 -1 -1 -1 -1 -0 -0 -0 -0 0 1 1 1 2 3 4 4 4 4 3 2 0 -0 -0 -0 -1 -1 -1 -0 1 1 1 1 1 1 -0 -0 -1 -1 -1 -1 -1
0 -0 -1 -0 -0 -1 -1 -1 -0 -0 0 1 1 1 1 2 1 2 3 4 4 2 2 0 0 -0 -0 -1 -1 -1 -0 1 1 3 3 2 1 0 -1 -1 -1 -1 -1
0 -1 -0 -1 -1 -1 -1 -1 -0 -0 -0 0 0 0 1 1 1 1 2 3 4 4 2 2 0 -0 -0 -1 -1 0 -1 2 2 4 4 3 3 2 1 0 0 -0 -0
-0 -0 -0 -0 -1 -1 -1 -1 1 -0 -0 -0 -0 0 1 0 0 0 1 2 4 6 5 2 2 -1 -0 -1 -1 -1 -1 1 1 4 5 4 4 3 3 3 2 0 0
-0 -0 -0 -0 -0 -0 -1 -1 0 -0 -0 0 0 0 0 0 0 0 1 1 2 4 6 2 2 0 -0 -0 -1 -1 -1 1 1 2 4 4 5 4 4 3 2 2 1
-0 0 -0 -0 0 -0 -0 -0 -0 -0 0 0 -0 0 0 -0 1 1 0 1 1 2 4 3 1 0 0 0 -0 -1 -1 -1 -1 3 4 4 5 5 4 3 3 3 2
-0 -0 -0 0 0 0 -0 0 0 0 1 1 1 0 0 1 0 0 1 1 1 1 2 4 2 1 1 -0 -0 -0 -0 -1 -1 2 4 4 5 4 4 5 4 4 4
1 -0 -0 0 0 0 0 0 0 0 0 1 0 1 1 1 1 1 1 1 1 1 1 3 3 1 1 0 1 -0 0 -0 -1 1 4 4 4 4 4 4 5 5 6
1 1 1 0 0 0 0 0 0 1 1 1 0 0 1 1 0 1 1 1 1 1 2 3 3 2 2 1 1 2 2 1 1 0 0 1 2 3 4 4 4 5 6
2 2 2 2 1 0 1 0 0 1 1 1 0 0 0 0 1 1 1 1 1 1 2 2 3 3 3 3 3 1 2 1 1 1 1 0 -0 -0 -0 3 1 3 5
3 3 3 3 2 2 4 5 2 1 0 1 1 1 0 1 1 2 3 4 3 1 2 2 3 3 3 2 2 2 2 3 4 -0 1 2 -0 0 -0 -1 2 4 5
3 3 3 3 3 3 6 6 5 2 2 1 1 1 2 2 3 2 4 4 4 5 3 1 2 2 3 1 2 2 2 2 2 1 2 2 -0 1 1 1 4 5 6
4 4 5 5 5 4 6 7 7 5 5 3 2 2 2 2 3 3 2 2 2 2 1 1 1 1 0 -0 0 1 2 1 2 1 0 4 2 3 0 -1 6 6 6
6 6 6 6 7 6 8 9 8 5 5 4 3 3 4 4 6 7 3 3 2 2 2 5 3 4 5 5 2 2 3 4 4 4 2 3 2 2 1 -0 -0 7 8
8 8 8 8 8 8 9 10 9 6 4 4 3 3 5 4 6 7 3 2 3 2 2 2 1 3 3 1 5 1 2 4 3 4 3 4 2 2 3 1 2 3 5

GFSMA_con_lsi_120.txt.gz
Lid_Strength_Index
-1 -1 -1 -1 -1 -1 -1 -1 -1 -1 -1 -1 -1 -1 -1 -2 -2 -1 -1 -3 -3 -3 -2 -2 -2 -2 -2 -1 -1 -1 -1 -1 -1 -1 -1 -1 -1 -1 -1 -1 -1 -1 -1
-1 -1 -1 -1 -1 -1 -1 -1 -1 -1 -1 -1 -1 -1 -1 -1 -2 -2 -1 -1 -4 -3 -2 -2 -2 -2 -1 -1 -1 -1 -1 -1 -1 -1 -1 -1 -1 -1 -1 -1 -1 -1 -1
-1 -1 -1 -1 -1 -1 -1 -1 -1 -1 -0 -1 -1 -1 -1 -1 -1 -1 -2 -2 -2 -3 -4 -3 -2 -2 -1 -1 -1 -1 -1 -1 -1 -1 -1 -1 -1 -1 -1 -1 -1 -1 -1
-2 -1 -0 -0 -1 -1 -1 -0 -0 -0 -0 -0 0 -0 -1 -1 -1 -1 -1 -1 -1 -1 -2 -3 -2 -2 -1 -1 -1 -1 -1 -1 -1 -1 -1 -1 -1 -1 -1 -1 -1 -1 -1
-1 -1 -0 -1 -1 -1 -0 -0 -0 -0 0 0 0 -0 -0 -0 -1 -1 -1 -1 -2 -1 -1 -3 -2 -1 -1 -1 -1 -1 -1 -1 -0 -1 -1 -1 -1 -1 -1 -1 -1 -1 -1
-1 -1 -1 -1 -1 -0 -0 -0 -0 -0 0 0 1 0 -0 -0 -0 -0 -0 -1 -1 -1 -2 -2 -2 -1 -1 -1 -1 -1 -1 -1 -1 -1 -0 -0 -1 -1 -1 -1 -1 -1 -1
-1 -1 -1 -1 -1 -0 -0 -0 -0 0 1 -0 1 1 1 -0 -0 -0 -0 -0 -1 -1 -1 -1 -1 -1 -1 -1 -1 -1 -1 -1 -1 -1 -0 -0 -0 -1 -1 -1 -1 -1 -1
-1 -1 -1 -1 -1 -0 -0 -0 -0 1 1 0 2 2 4 2 1 0 -0 -0 -0 -1 -1 -1 -1 -1 -2 -1 -1 -1 -1 -1 -1 -1 -0 -0 -0 -1 -1 -1 -1 -1 -1
-1 -1 -1 -1 -1 -1 -0 -1 -0 0 2 0 1 2 4 4 2 1 0 0 -0 0 -0 -1 -1 -1 -2 -1 -1 -1 -1 -1 -1 -1 -0 -0 -0 -1 -1 -1 -0 -1 -1
-1 -1 -2 -1 -1 -1 -1 -1 -1 -0 0 2 1 1 1 2 4 4 1 1 0 0 0 -0 -1 -1 -2 -1 -2 -1 -0 -0 -1 -1 -0 -0 -1 -1 -1 -1 -0 -0 -1
-1 -1 -1 -1 -1 -1 -2 -1 -1 -1 0 1 1 1 1 2 2 4 6 3 1 0 -0 -0 -0 -1 -1 -2 -1 -1 -0 0 0 0 -0 -0 -0 -0 -0 -1 -1 -1 -1
-1 -1 -1 -1 -2 -1 -1 -1 -1 -1 -0 0 0 1 1 2 3 3 4 3 3 1 0 -0 -0 -0 -1 -1 -1 -1 -0 0 1 1 1 0 -0 -0 -0 -0 -1 -1 -1
0 -1 -1 -1 -1 -1 -1 -1 -1 -1 -1 0 -0 1 0 1 1 2 2 3 3 2 1 0 -0 -1 -1 -1 -1 -1 -1 1 1 1 1 1 1 0 0 -0 -0 -1 -1
-0 -2 -1 -1 -1 -1 -1 -1 -1 -0 -1 -0 -1 -0 0 0 0 1 2 2 4 3 2 1 -0 -0 -1 -1 -1 -1 -1 1 2 2 3 2 2 1 1 1 0 -0 0
-1 -1 -1 -1 -1 -1 -1 -1 -0 -1 -1 -1 -1 -1 0 -0 0 0 0 1 2 6 4 2 2 -1 -1 -1 -1 -1 -1 1 1 2 3 4 4 3 2 2 1 1 1
-1 -1 -1 -1 -1 -1 -1 -1 -0 -1 -0 -0 -0 -1 -0 -0 -0 -0 0 1 1 2 5 2 1 0 -0 -0 -1 -1 -1 1 1 2 2 3 5 4 4 3 3 3 2
-1 -0 -0 -0 -0 -0 -1 -0 -0 -0 -0 0 -0 -0 -0 -0 0 0 -0 0 1 1 3 2 1 -0 -0 -0 -0 -1 -1 -1 -1 3 3 3 5 5 5 4 4 3 2
-1 -0 -0 -0 -0 -0 -0 -0 0 0 1 0 0 0 1 0 0 0 0 0 1 0 2 3 1 1 0 -0 -0 0 0 -1 -0 2 3 4 5 5 5 5 5 4 3
0 -0 -0 -0 0 -0 -0 -0 0 0 0 0 0 1 0 0 1 1 0 1 1 1 1 2 2 1 1 0 0 -0 0 -0 -1 1 3 4 4 5 5 5 4 4 5
0 0 -0 -0 -0 -0 -0 -0 0 0 0 0 0 0 0 0 1 1 1 1 1 1 1 2 2 1 1 0 0 2 2 0 1 -0 0 1 3 4 4 4 4 5 6
0 0 0 0 0 0 0 -0 -0 0 1 1 0 0 0 0 1 1 1 1 1 1 2 3 2 2 2 2 2 1 2 1 1 0 0 0 -0 -0 0 4 2 3 5
1 1 1 1 1 1 4 5 2 0 0 0 1 0 0 1 1 2 2 2 1 1 2 3 3 2 2 1 1 2 2 3 4 0 1 1 0 1 0 -0 3 5 6
1 1 1 1 1 1 4 6 5 1 1 1 1 1 1 1 1 1 3 4 4 5 5 2 3 3 2 1 1 1 1 2 2 1 1 2 0 1 0 4 6 6 7
2 2 2 1 1 2 6 7 7 3 3 2 1 1 2 2 2 2 2 2 2 1 2 2 1 1 1 -0 0 1 1 1 1 1 -0 3 1 2 0 2 8 8 8
3 4 3 3 4 4 7 7 7 6 6 5 4 3 3 3 4 7 3 3 2 2 4 6 6 6 6 6 4 0 2 2 4 3 1 2 2 2 1 0 2 9 9
6 6 6 6 7 7 9 10 9 8 7 6 5 4 6 4 6 7 2 2 3 3 3 2 2 3 5 2 6 0 1 3 4 4 2 3 2 2 3 1 0 1 4

GFSMA_con_lsi_123.txt.gz
Lid_Strength_Index
-1 -1 -1 -1 -1 -1 -1 -1 -1 -1 -1 -1 -1 -1 -1 -1 -1 -1 -1 -4 -4 -4 -3 -2 -2 -2 -2 -1 -1 -1 -1 -1 -1 -1 -1 -1 -1 -1 -1 -1 -1 -1 -1
-1 -1 -1 -1 -1 -1 -1 -1 -1 -1 -1 -1 -0 -1 -1 -1 -1 -2 -1 -2 -4 -4 -4 -2 -2 -2 -2 -1 -1 -1 -1 -1 -1 -1 -1 -1 -1 -1 -1 -1 -1 -1 -1
-1 -1 -1 -0 -1 -2 -1 -1 -1 -1 -0 -1 -0 -1 -1 -1 -1 -1 -1 -1 -1 -3 -3 -3 -2 -2 -1 -1 -1 -1 -1 -1 -1 -1 -1 -1 -1 -1 -1 -1 -1 -1 -1
-1 -1 -0 -0 -1 -1 -1 -0 -0 0 0 0 0 -0 -0 -1 -1 -1 -1 -1 -1 -1 -2 -2 -2 -2 -1 -1 -1 -1 -1 -0 -1 -1 -1 -1 -1 -1 -1 -1 -1 -1 -1
-1 -1 -0 -1 -2 -1 -0 -0 -0 -0 0 0 0 -0 -0 -0 -0 -0 -1 -1 -2 -1 -1 -2 -2 -1 -1 -1 -1 -1 -1 -0 -0 -0 -1 -1 -1 -1 -1 -1 -1 -1 -1
-1 -1 -0 -1 -1 -0 -0 -0 -0 -0 0 0 1 1 0 -0 -0 -0 -0 -1 -1 -1 -2 -2 -1 -1 -1 -1 -1 -1 -1 -1 -0 -1 -0 -0 -0 -1 -1 -1 -1 -1 -1
-1 -0 -0 -0 -1 -0 -0 -1 0 0 1 -0 1 1 1 -0 0 0 -0 -0 -0 -1 -1 -1 -1 -1 -1 -1 -1 -1 -1 -1 -1 -1 -0 -0 -0 -1 -1 -1 -1 -1 -1
-1 -1 -1 -1 -1 -0 -1 -0 -0 1 1 0 2 2 4 2 1 0 0 0 -0 -0 -0 -1 -1 -1 -1 -1 -1 -1 -1 -1 -1 -1 -0 0 -0 -0 -1 -0 -0 -1 -0
-0 -1 -1 -1 -1 -1 -0 -0 -0 0 2 1 -0 2 5 5 3 1 1 1 0 0 -0 -1 -0 -1 -2 -1 -1 -1 -1 -1 -1 -1 -0 -0 -0 -1 -1 -0 -0 -0 -0
-1 -1 -1 -1 -1 -1 -1 -1 -1 -0 -0 2 1 0 0 1 4 5 2 1 0 1 0 -0 -0 -0 -1 -1 -2 -1 -1 -0 -1 -1 -0 -0 -0 -1 -1 -0 -0 -0 -0
-1 -1 -1 -1 -1 -1 -2 -1 -1 -1 0 1 1 1 1 1 1 3 5 3 1 0 0 1 -0 -0 -1 -1 -1 -1 -0 -0 -0 -0 -0 -0 -0 -0 -0 -0 -0 -0 -1
-0 -1 -1 -1 -1 -1 -1 -1 -1 -1 -0 -0 0 1 1 2 2 3 3 3 3 1 0 -0 -0 -0 -1 -1 -1 -0 0 1 1 1 0 0 -0 -0 -0 -0 -1 -1 -1
0 -0 -1 -1 -1 -1 -1 -1 -1 -1 -1 0 0 1 0 1 1 1 2 3 3 2 1 0 -0 -0 -1 -1 -1 -1 -0 1 2 2 1 1 0 -0 -0 -0 -0 -0 -0
-0 -1 -1 -1 -1 -1 -1 -1 -0 -0 -1 -0 -0 0 0 1 1 1 1 2 3 3 2 1 -0 -0 -0 -0 -1 -0 -1 1 2 3 3 2 1 1 0 0 1 1 0
-1 -1 -1 -1 -1 -1 -1 -1 -0 -0 -0 -0 -0 -0 0 0 0 1 1 1 2 4 4 1 2 -1 -0 -1 -1 -0 -0 0 1 3 3 3 2 2 2 2 2 1 1
-1 -1 -1 -1 -0 -0 -1 -1 -0 -0 0 0 0 0 0 0 -0 0 0 0 1 2 4 2 1 -0 -1 -0 -1 -1 -1 0 1 2 3 2 3 3 3 3 3 3 2
-1 -0 -0 -0 -0 -0 -0 -0 0 0 0 0 0 0 1 -0 1 0 0 0 1 1 3 2 1 -0 -0 0 -0 -1 -1 -1 -1 2 3 3 4 4 3 4 4 4 3
-0 -0 -0 -0 0 0 -0 0 1 0 1 1 1 1 1 1 1 0 1 1 1 1 2 3 1 1 1 -0 -0 -0 -0 -1 -0 0 3 4 4 4 5 5 6 5 4
-0 -0 -0 0 0 0 0 0 0 1 1 1 1 1 1 1 1 1 1 1 1 1 1 2 2 1 1 0 0 -0 0 -0 -0 0 3 3 4 4 4 5 6 6 6
-0 -0 -0 0 -0 -0 0 0 0 0 0 1 0 1 1 1 1 1 1 1 1 1 1 2 2 2 1 0 1 1 2 0 1 -0 1 1 2 4 4 5 6 5 6
-0 -0 -0 -0 0 0 0 0 0 0 1 1 1 0 0 1 1 1 1 1 1 2 2 2 2 2 2 2 2 2 2 1 1 0 1 -0 -0 -0 -0 4 2 4 5
0 0 0 1 0 0 3 4 2 0 0 1 1 1 0 1 1 3 3 2 1 2 2 3 2 3 2 1 1 2 3 3 3 -0 0 1 0 0 -0 -0 2 4 6
0 1 0 1 1 0 4 5 4 1 1 1 1 1 1 1 1 0 1 3 3 3 3 1 2 2 2 1 1 2 2 2 3 1 1 2 0 1 -0 2 6 7 7
1 1 1 0 1 0 5 7 6 3 2 2 2 2 1 1 1 1 1 1 1 0 1 3 3 1 1 -0 0 1 1 1 1 1 0 3 1 1 1 2 8 7 7
2 2 3 3 3 3 6 8 8 5 5 4 3 3 3 3 4 6 3 3 2 1 3 5 5 6 6 7 5 2 3 4 3 3 0 2 2 1 1 1 3 8 8
5 5 6 7 8 8 8 9 9 9 9 9 8 7 8 7 7 9 4 3 3 3 2 3 4 6 7 4 7 3 2 3 4 4 1 3 2 2 4 1 0 3 2

GFSMA_con_lsi_129.txt.gz
Lid_Strength_Index
1 1 0 0 0 0 1 2 2 2 1 2 2 3 2 3 3 2 2 -3 -3 -4 -3 -3 -3 -3 -2 -2 -2 -1 -1 -1 -1 -1 -1 -1 -1 -1 -1 -1 -1 -1 -1
0 0 0 0 0 1 1 1 1 1 1 1 1 1 2 1 1 1 1 2 -1 -1 -2 -3 -3 -2 -2 -2 -1 -1 -1 -1 -1 -1 -1 -1 -1 -1 -1 -1 -1 -1 -1
0 0 0 0 0 1 1 1 0 0 1 0 1 0 0 0 0 0 0 1 1 -1 -1 -1 -2 -2 -2 -2 -1 -1 -1 -1 -1 -1 -1 -1 -1 -1 -1 -1 -1 -1 -1
0 0 1 1 1 0 2 3 2 2 2 1 1 1 1 1 1 1 1 1 0 0 -1 -2 -2 -2 -2 -2 -2 -1 -1 -1 -0 -0 -0 -1 -1 -1 -1 -1 -1 -1 -1
-0 0 0 1 0 2 3 3 3 1 1 1 2 2 2 1 0 0 0 0 0 1 1 -0 -1 -1 -0 -2 -2 -2 -1 -1 -0 -0 -0 -0 -1 -1 -1 -1 -1 -1 -1
-0 0 0 1 1 2 4 3 4 4 2 2 1 1 2 2 1 1 1 0 0 0 0 1 0 2 0 0 0 -2 -1 -1 -0 -0 -0 -0 -0 -1 -1 -1 -1 -1 -1
-0 0 1 1 1 1 2 2 2 2 2 2 4 4 4 2 2 2 2 1 0 -0 0 -0 -0 -0 0 -1 1 -0 -1 -1 -1 -1 0 0 -0 -1 -1 -1 -1 -1 -1
1 0 1 1 1 1 2 1 2 2 3 3 4 4 5 4 2 2 1 2 1 0 0 0 -0 -0 0 -1 -1 -1 -1 -1 -1 -1 -0 1 -0 -0 -1 -1 -1 -1 -1
0 0 0 1 1 2 1 1 2 3 3 3 3 4 6 7 4 3 2 2 2 1 0 0 -0 -0 0 -1 -1 -1 -1 -1 -1 -2 -1 -0 -0 -0 -0 -0 -0 -0 -0
1 0 0 1 1 2 3 2 2 1 3 4 3 2 3 4 6 6 3 2 1 1 1 0 0 0 0 1 -1 -1 -1 -2 -1 -1 -1 -1 -1 -1 -0 -0 -0 -0 -0
1 0 0 1 2 2 3 3 3 3 2 3 3 3 4 4 4 5 6 4 3 2 2 1 1 0 0 0 -0 0 0 -0 0 1 -0 -1 -1 -1 -0 -0 -0 -0 -1
2 2 2 2 2 3 2 3 1 2 1 2 3 3 4 4 4 5 5 5 5 3 2 2 2 1 1 0 -2 -1 -0 0 1 2 1 1 -0 -1 -1 -1 -1 -1 -1
4 3 3 3 2 3 1 1 2 1 1 2 2 2 2 3 4 3 4 6 6 5 4 4 4 2 1 1 1 -1 -1 0 1 2 2 1 1 0 -1 -1 -1 -1 -1
3 3 2 1 1 1 1 1 1 1 2 3 2 2 3 2 2 4 5 6 8 7 7 6 3 4 2 1 -0 -2 0 -0 1 2 2 2 1 1 1 0 -0 -0 -0
1 2 1 1 1 1 1 1 1 2 2 2 1 2 2 1 2 3 3 4 5 8 8 6 5 3 2 1 0 2 1 -1 -1 0 2 2 2 1 2 2 2 2 1
2 1 1 1 1 1 1 1 2 2 2 1 2 2 2 2 2 2 2 3 4 5 6 5 4 3 1 0 0 2 1 -1 0 1 2 2 3 3 3 3 3 2 2
3 1 1 1 1 1 1 1 2 2 2 2 2 2 2 2 2 2 3 3 4 4 4 4 4 3 2 2 1 1 0 1 0 1 1 1 2 1 2 4 4 4 3
2 3 2 2 1 1 2 1 2 1 2 2 2 2 2 1 3 2 2 3 3 4 5 4 3 4 3 3 2 2 2 1 1 0 1 2 2 3 4 4 5 5 5
2 2 2 2 1 1 1 2 2 2 1 1 1 2 2 2 2 2 3 3 3 2 3 4 3 3 3 3 4 4 3 2 0 -1 1 1 1 3 3 4 5 5 5
2 2 3 2 2 2 2 2 2 3 3 2 2 1 1 2 2 2 2 3 2 3 2 3 3 3 3 2 3 3 4 3 3 0 0 1 1 1 2 3 4 4 6
2 2 2 3 3 2 2 3 4 4 4 3 3 2 2 1 1 2 3 3 3 3 3 3 3 3 3 4 4 3 4 4 4 2 2 1 1 0 0 1 2 4 5
3 3 3 3 3 2 4 5 5 6 5 4 4 3 3 1 1 2 2 3 4 4 4 3 3 4 3 4 4 5 5 5 6 3 2 3 2 2 1 0 5 6 7
5 5 5 4 4 4 6 7 6 7 6 5 5 5 4 2 3 3 3 3 3 4 3 3 4 3 3 2 4 5 5 5 5 4 4 5 3 3 1 1 6 6 6
7 7 6 6 6 5 7 7 7 8 7 7 7 6 6 6 6 5 5 4 4 3 3 2 3 3 2 2 2 2 2 2 3 3 4 7 4 3 1 4 7 7 7
9 8 8 8 8 8 8 8 8 8 8 9 9 9 8 8 9 9 8 8 8 7 6 7 6 5 6 5 3 1 3 3 4 5 6 6 4 3 2 4 5 8 9
10 10 10 10 10 10 10 10 10 11 11 11 10 9 9 9 10 10 9 9 9 8 7 6 5 5 7 5 6 2 2 5 6 7 5 6 6 4 4 3 5 5 7

GFSMA_con_lsi_132.txt.gz
Lid_Strength_Index
1 1 1 0 0 1 1 2 2 2 2 2 2 2 3 3 3 4 3 -1 -1 -2 -2 -2 -2 -2 -2 -2 -2 -2 -1 -1 -1 -1 -1 -1 -1 -1 -1 -1 -1 -1 -1
0 1 1 1 1 1 1 2 2 2 2 1 1 1 2 1 1 1 1 1 -1 -1 -1 -2 -2 -2 -2 -2 -2 -2 -1 -1 -1 -1 -1 -1 -1 -1 -1 -1 -1 -1 -1
0 0 1 2 1 1 2 1 1 1 2 1 2 1 0 0 1 3 1 1 0 -1 -1 -1 -2 -1 -1 -1 -1 -1 -1 -1 -1 -1 -0 -1 -1 -1 -1 -1 -1 -1 -1
0 0 0 1 1 1 2 3 3 3 3 2 1 1 1 1 1 1 0 0 0 -0 -0 -1 -1 -1 -1 -1 -1 -1 -1 -1 -1 -1 -0 -0 -1 -1 -1 -1 -1 -1 -1
0 0 0 2 1 3 3 3 4 3 4 2 1 2 2 1 1 1 1 1 0 0 0 -1 -1 -0 0 0 -0 -1 -1 -1 -0 -1 -0 -0 -1 -1 -1 -1 -1 -1 -1
0 0 0 1 2 3 4 4 4 5 4 2 2 1 2 2 2 1 1 1 0 0 0 0 0 0 -1 -1 -1 -1 -1 -1 -1 -1 -0 -0 -0 -0 -1 -1 -1 -1 -1
0 0 0 1 2 3 3 3 5 5 4 2 3 4 4 4 3 2 2 2 1 0 0 -0 0 1 1 -1 -1 -1 -1 -1 -1 -1 -0 0 -0 -0 -1 -1 -1 -1 -1
0 0 1 1 2 2 2 3 2 2 3 3 4 5 6 4 3 2 2 1 1 1 0 0 -0 -0 0 0 -1 -1 -1 -1 -1 -1 -1 -0 0 -0 -1 -1 -1 -1 -0
0 0 2 2 1 2 2 2 2 2 4 4 4 5 6 7 5 4 3 1 2 1 0 0 0 0 0 0 0 -1 -1 -1 -1 -2 -1 -1 -0 -1 -1 -0 -0 -0 -0
1 1 2 1 2 2 2 2 1 3 5 4 4 3 4 4 6 6 4 2 2 2 2 1 0 0 -0 0 -0 -1 -1 -1 -1 -1 -1 -1 -1 -1 -1 -1 -1 -0 -0
2 2 2 2 2 2 2 3 1 3 4 5 4 4 4 5 5 6 6 4 3 2 2 2 2 0 0 0 0 0 -0 -0 -0 -0 -0 -0 -0 -1 -1 -1 -1 -1 -1
2 2 2 2 2 3 3 3 3 3 4 5 3 3 4 5 5 5 6 5 5 4 3 3 4 3 2 1 -1 -1 -1 -0 0 0 0 -0 -1 -1 -1 -1 -2 -1 -1
4 3 2 2 3 3 4 3 4 3 3 3 3 3 4 4 3 5 5 6 6 6 5 4 5 5 3 1 1 -1 -1 -0 1 1 1 1 -0 -1 -1 -1 -1 -1 -1
4 3 3 4 3 3 3 4 4 3 2 2 2 2 3 2 4 4 5 6 7 7 7 6 5 4 4 1 0 -1 0 -1 -0 0 1 0 1 0 -0 -1 -1 -0 -1
2 2 3 3 3 2 2 2 2 2 2 3 3 3 3 2 3 3 4 5 6 7 8 6 5 4 4 1 1 2 3 1 -0 0 1 1 1 1 1 1 1 1 1
4 3 3 3 2 2 2 2 3 2 3 2 2 2 2 2 2 2 3 4 5 5 6 5 4 4 3 1 -0 1 2 -0 -0 0 1 1 1 1 1 1 0 2 2
4 3 3 3 3 3 2 2 2 2 2 3 3 3 2 3 3 3 3 3 4 5 5 4 5 4 4 3 2 2 2 2 2 1 -0 0 1 2 3 3 3 3 3
4 3 3 3 3 3 3 2 3 3 3 2 2 2 2 1 3 3 3 4 4 4 4 4 4 5 4 4 4 3 2 2 3 1 1 2 3 3 3 4 4 4 5
4 4 4 4 3 3 4 4 3 3 3 3 3 3 3 3 3 2 2 2 2 2 4 4 3 4 4 4 4 4 4 4 2 -0 1 1 1 2 2 3 3 4 5
4 4 4 3 3 3 3 2 3 4 5 4 4 4 4 4 4 4 3 3 2 2 3 3 3 3 4 4 4 4 4 4 4 2 1 1 1 1 1 2 2 2 4
4 4 4 4 4 3 3 5 5 6 6 5 5 4 3 2 1 1 2 4 4 4 4 4 4 4 4 5 5 3 5 4 5 4 3 2 2 2 2 2 0 2 5
6 6 6 5 6 3 6 6 6 7 7 6 6 5 4 3 2 2 2 2 2 4 4 4 4 4 3 4 4 4 5 6 6 5 3 4 2 3 2 1 3 4 6
8 8 8 7 7 7 6 7 6 8 8 7 7 6 6 4 4 4 4 3 3 4 4 5 6 5 5 3 2 3 5 5 6 5 4 5 5 4 3 0 4 6 6
10 10 9 9 9 8 7 8 7 8 8 8 8 8 8 7 6 6 6 6 6 6 7 6 6 6 4 3 3 2 3 4 4 4 4 5 4 4 3 3 6 6 7
11 11 10 11 12 11 10 10 10 11 10 10 10 9 9 9 9 10 9 9 9 8 7 8 8 8 9 9 7 5 4 3 4 4 4 3 4 5 4 3 4 7 8
12 12 12 12 11 11 11 10 10 10 11 10 10 10 9 9 10 10 10 9 10 9 9 8 7 7 7 6 8 7 6 5 4 4 4 4 6 5 6 2 5 5 6

GFSMA_con_lsi_135.txt.gz
Lid_Strength_Index
1 0 0 0 0 0 1 1 1 2 2 1 2 3 3 3 4 4 4 0 -0 -2 -2 -2 -2 -2 -2 -2 -2 -2 -1 -1 -1 -1 -1 -1 -1 -1 -1 -1 -1 -1 -1
0 0 0 1 1 0 1 1 2 2 2 2 2 1 1 2 2 2 1 -0 -1 -1 -2 -2 -2 -1 -2 -2 -1 -1 -1 -1 -1 -1 -1 -1 -1 -1 -1 -1 -1 -1 -1
0 0 0 1 1 1 1 2 3 2 2 1 2 2 1 1 1 2 3 0 0 -1 -1 -1 -1 -2 -2 -1 -1 -1 -1 -1 -1 -1 -1 -0 -1 -1 -1 -1 -1 -1 -1
-0 0 0 0 1 1 1 1 2 3 3 3 2 1 1 1 1 1 1 0 0 0 -1 -1 -1 -1 -1 -1 -1 -1 -1 -1 -1 -1 -1 -0 -1 -1 -1 -1 -1 -1 -1
1 1 2 0 0 1 2 2 3 4 4 4 2 1 2 2 2 2 2 1 1 0 0 -1 -1 -1 -1 -1 -1 -1 -1 -1 -1 -0 -1 -1 -1 -1 -1 -1 -1 -1 -1
1 1 1 0 0 3 3 4 4 5 5 4 3 2 2 2 2 2 2 1 1 0 0 0 0 0 -1 -1 -1 -1 -1 -2 -1 -1 -1 -0 -0 -0 -0 -1 -1 -1 -1
1 1 1 1 1 3 3 3 3 4 5 3 3 3 3 4 4 2 2 2 1 1 0 0 0 0 0 -1 -1 -1 -1 -2 -2 -1 -0 -0 0 -1 -0 -1 -1 -1 -1
1 1 1 1 2 3 3 3 4 4 4 2 4 4 5 4 4 3 3 2 1 1 0 0 0 0 0 0 -0 -1 -1 -1 -1 -2 -1 0 -0 -1 -1 -1 -1 -0 -0
1 1 1 1 1 2 2 2 3 3 3 3 3 4 6 6 5 4 3 2 2 2 1 1 0 -0 0 0 -0 0 -1 -1 -1 -1 -1 -1 -1 -1 -1 -1 -1 -1 -1
0 1 1 1 1 1 2 2 2 2 3 4 5 4 5 6 5 6 5 4 3 2 2 2 2 0 0 0 -0 -1 -1 -1 -1 -1 -1 -1 -1 -1 -1 -1 -1 -1 -1
1 1 1 1 1 2 2 2 2 3 3 4 5 5 5 5 5 6 6 5 4 3 3 2 3 2 2 0 0 0 -1 -1 -1 -1 -2 -1 -1 -1 -1 -1 -1 -1 -1
2 1 1 1 1 2 2 3 3 2 3 4 5 5 5 5 6 6 6 6 5 4 4 3 4 5 3 2 -0 -1 -1 -0 0 0 -1 -1 -2 -2 -1 -1 -1 -2 -2
2 2 2 3 2 2 3 3 4 4 4 4 4 4 4 4 4 4 5 6 6 6 6 5 4 5 4 4 1 -1 -1 -0 -0 0 0 -0 -1 -2 -1 -1 -1 -1 -1
4 3 3 3 3 2 3 4 5 4 4 4 4 4 4 4 4 4 5 6 8 8 7 6 6 5 4 4 1 -1 0 -0 0 1 1 1 1 -0 -1 -1 -1 -1 -1
2 3 2 3 3 3 3 4 4 4 3 3 3 3 3 3 3 3 5 6 6 8 8 6 6 4 4 3 1 1 1 0 -1 0 1 1 1 1 0 0 0 -0 -1
4 4 4 3 3 3 3 3 3 3 3 3 3 2 3 2 2 2 3 4 4 5 6 6 5 5 4 3 2 1 2 1 0 1 1 1 1 1 1 1 1 2 2
6 5 4 4 4 4 4 4 4 2 2 2 1 2 2 2 3 3 3 3 4 5 5 4 5 4 5 4 3 2 2 3 2 1 1 1 2 2 2 3 3 3 3
4 4 4 4 4 4 5 5 5 4 4 4 3 3 2 1 3 3 3 4 4 4 4 4 4 5 5 4 4 4 3 2 3 2 2 2 2 2 2 3 3 3 3
4 5 5 5 4 4 4 5 5 5 6 5 5 6 5 5 6 5 5 4 3 2 4 4 3 4 4 4 4 4 4 4 3 1 2 2 1 1 2 2 3 3 3
7 6 6 5 5 5 4 5 5 6 7 6 6 5 4 5 5 5 5 5 4 3 3 3 3 3 3 3 4 4 3 5 4 2 1 2 1 1 2 2 2 1 3
7 7 7 6 6 5 5 6 6 7 7 7 7 6 5 4 3 3 4 4 4 5 4 4 4 4 4 4 4 4 4 4 5 4 4 4 3 3 3 2 1 2 4
9 9 9 8 8 7 7 6 6 8 8 8 8 7 6 5 4 3 3 2 3 5 6 5 5 6 5 4 4 4 4 5 5 4 5 4 3 3 3 3 2 3 4
11 11 11 10 10 9 8 8 7 8 9 9 9 8 8 6 5 6 5 4 4 4 4 5 5 5 5 5 5 5 5 4 4 3 3 4 5 4 3 2 3 4 5
13 13 12 11 11 10 9 10 9 11 11 11 11 11 11 10 9 9 9 9 8 7 7 6 6 6 6 6 6 6 6 5 5 6 4 5 4 4 3 3 4 4 5
13 13 12 12 12 12 10 10 10 10 10 10 10 9 10 10 9 10 10 10 10 9 7 8 8 9 9 9 8 7 6 7 7 5 5 4 3 5 4 3 3 5 6
12 12 12 11 10 11 9 9 9 9 9 9 9 9 8 9 10 10 10 10 10 9 9 9 8 8 8 7 8 8 8 9 8 8 4 3 3 3 4 1 3 4 5